[[{"header":{"parameterUnit":"m.s-1","parameterCategory":1,"la1":30.2991,"la2":30.254,"lo1":-89.0895,"lo2":-89.0444,"dy":0.0017,"dx":0.0017,"nx":28,"ny":28,"refTime":"2024-04-21T21:00:00:Z","depth":0,"parameterNumber":2,"parameterNumberName":"U-component_of_WINDS"},"data":[0,0,0,0,0,0,0,0,0,0,0,0,0,0,0,0,0,0,0,0,0,0,0,0,0,0,0,0,0,0,0,0,0,0,0,0,0,0,0,0,0,0,0,0,0,0,0,0,0,0,0,0,0,0,0,0,0,0,-2.1187,-2.1187,0,-2.1252,-2.1252,-2.1253,-2.1208,-2.1206,-2.1204,-2.1203,-2.1269,-2.1272,-2.1276,0,0,0,0,0,0,0,0,0,0,0,0,0,-2.1021,-2.1025,-2.1186,-2.1187,-2.1188,-2.1252,-2.1252,-2.1253,-2.1209,-2.1206,-2.1204,-2.1202,-2.1267,-2.1272,-2.1276,0,0,0,0,0,0,0,0,0,0,0,0,0,-2.1091,-2.1026,-2.1186,-2.1174,-2.1173,-2.1251,-2.1252,-2.1254,-2.1209,-2.1206,-2.1203,-2.12,-2.1266,-2.1271,-2.1277,-2.1371,0,0,-2.1293,-2.1296,0,0,0,0,0,0,0,0,-2.1087,-2.1097,-2.1175,-2.1175,-2.1174,-2.1219,-2.1218,-2.1293,-2.121,-2.1196,-2.1202,-2.1199,-2.1254,-2.1261,-2.1279,-2.1374,-2.1377,-2.1294,-2.1297,-2.1299,-2.1301,0,0,0,0,0,0,0,-2.1082,-2.1094,-2.1212,-2.1176,-2.1176,-2.1164,-2.117,-2.1232,-2.1241,-2.1197,-2.1194,-2.1202,-2.1254,-2.1274,-2.1281,-2.1378,-2.1294,-2.1298,-2.1302,-2.1304,-2.155,-2.1553,0,0,0,0,0,0,-2.1079,-2.109,-2.121,-2.1214,-2.1122,-2.1169,-2.1177,-2.1208,-2.124,-2.1242,-2.1204,-2.12,-2.1267,-2.1274,-2.1283,-2.1393,-2.1299,-2.1305,-2.1308,-2.1547,-2.1551,-2.1554,0,0,0,0,0,0,-2.1075,-2.109,-2.1207,-2.1151,-2.1165,-2.1175,-2.1211,-2.121,-2.1231,-2.1246,-2.1247,-2.1224,-2.1264,-2.1275,-2.1349,-2.1395,-2.1307,-2.1312,-2.1543,-2.1548,-2.1553,-2.1616,0,0,0,0,0,0,-2.1071,-2.1089,-2.1125,-2.1152,-2.1169,-2.1273,-2.1213,-2.1214,-2.1241,-2.1235,-2.1265,-2.1267,-2.1263,-2.1341,-2.1354,-2.1401,-2.1316,-2.1539,-2.1545,-2.1551,-2.161,-2.1623,-2.1634,0,0,0,0,0,-2.1065,-2.1141,-2.1127,-2.1142,-2.1214,-2.1276,-2.1285,-2.1279,-2.1245,-2.1281,-2.129,-2.1266,-2.1388,-2.1349,-2.1363,-2.1413,-2.1536,-2.1543,-2.1551,-2.1605,-2.162,-2.1633,0,0,0,0,0,0,-2.1119,-2.1144,-2.1129,-2.1217,-2.1245,-2.1268,-2.1314,-2.1296,-2.1334,-2.1327,-2.1318,-2.1325,-2.1401,-2.1415,-2.137,-2.1504,-2.1456,-2.1467,-2.1493,-2.1508,-2.1519,-2.1514,-2.1321,0,0,0,0,0,-2.1141,-2.119,-2.1209,-2.1284,-2.1299,-2.1304,-2.1331,-2.1323,-2.1352,-2.1363,-2.1378,-2.1406,-2.145,-2.148,-2.1522,-2.1612,-2.1617,-2.1653,-2.1665,-2.1674,-2.1683,-2.173,-2.1745,-2.1579,-2.1578,-2.1578,0,0,-2.1187,-2.1207,-2.1238,-2.1295,-2.1316,-2.1365,-2.1314,-2.1369,-2.1405,-2.1371,-2.1441,-2.1453,-2.1484,-2.1566,-2.1602,-2.1579,-2.173,-2.1684,-2.1691,-2.1695,-2.1739,-2.1755,-2.1769,-2.1584,-2.1583,-2.1582,0,0,-2.1296,-2.1317,-2.1381,-2.1402,-2.1434,-2.1437,-2.1452,-2.1478,-2.1485,-2.1555,-2.153,-2.1573,-2.165,-2.1672,-2.1693,-2.1809,-2.1788,-2.1823,-2.1884,-2.193,-2.1943,-2.1954,-2.1993,-2.2008,-2.1832,-2.1832,-2.1833,0,-2.1349,-2.1423,-2.1416,-2.1472,-2.1497,-2.1468,-2.1532,-2.1553,-2.1597,-2.1615,-2.1588,-2.1683,-2.1702,-2.1787,-2.1815,-2.1834,-2.185,-2.1819,-2.1942,-2.1953,-2.1964,-2.2001,-2.2016,-2.1836,-2.1836,-2.1836,-2.1835,0,-2.1486,-2.1537,-2.1585,-2.1627,-2.1658,-2.1718,-2.1718,-2.175,-2.174,-2.1745,-2.1816,-2.1837,-2.1882,-2.1902,-2.1893,-2.1986,-2.197,-2.1943,-2.1894,-2.1984,-2.2018,-2.2033,-2.1842,-2.1841,-2.184,-2.1839,0,0,-2.163,-2.1667,-2.1685,-2.1703,-2.1735,-2.1774,-2.1832,-2.1876,-2.1902,-2.1933,-2.198,-2.2046,-2.202,-2.2044,-2.2038,-2.2078,-2.2165,-2.2045,-2.2046,-2.2065,-2.2266,-2.2285,-2.2302,-2.2152,-2.2155,-2.2157,-2.2263,0,-2.1739,-2.184,-2.1834,-2.1929,-2.1975,-2.1948,-2.1998,-2.2023,-2.2029,-2.2069,-2.2076,-2.2121,-2.2085,-2.2099,-2.2138,-2.2147,-2.2205,-2.2139,-2.2194,-2.2196,-2.2185,-2.232,-2.2341,-2.244,-2.2277,-2.2279,-2.2281,0,-2.188,-2.1915,-2.2014,-2.2037,-2.2056,-2.2102,-2.214,-2.2179,-2.2206,-2.2207,-2.2234,-2.222,-2.2277,-2.2228,-2.2306,-2.2261,-2.2283,-2.229,-2.2294,-2.2298,-2.2243,-2.2326,-2.2472,-2.2486,-2.2302,-2.2301,-2.2299,0,-2.1973,-2.2045,-2.2113,-2.2129,-2.2159,-2.2191,-2.2205,-2.2229,-2.2255,-2.2289,-2.2305,-2.2345,-2.2367,-2.2398,-2.2394,-2.236,-2.2473,-2.2424,-2.2474,-2.2474,-2.2498,-2.2496,-2.2648,-2.2516,-2.2515,-2.2515,-2.2515,0,-2.2094,-2.2155,-2.2154,-2.2196,-2.2263,-2.2256,-2.2322,-2.2332,-2.2353,-2.2395,-2.2376,-2.2415,-2.241,-2.2449,-2.2448,-2.2511,-2.2521,-2.2523,-2.2521,-2.2524,-2.2523,-2.2537,-2.2529,-2.2519,-2.2518,-2.2517,-2.2517,0,-2.2209,-2.2211,-2.2283,-2.2305,-2.2312,-2.236,-2.2378,-2.2417,-2.2422,-2.2475,-2.2487,-2.2494,-2.254,-2.254,-2.2592,-2.2591,-2.2667,-2.2659,-2.2658,-2.2656,-2.2705,-2.27,-2.2869,-2.289,-2.2746,-2.2748,-2.2749,0,-2.2285,-2.2331,-2.2358,-2.2384,-2.24,-2.2444,-2.247,-2.2464,-2.2492,-2.2525,-2.256,-2.2603,-2.2638,-2.2712,-2.2721,-2.276,-2.2751,-2.2808,-2.2757,-2.2757,-2.2749,-2.2746,-2.275,-2.2817,-2.2819,-2.282,-2.2821,0,-2.2419,-2.2418,-2.2456,-2.2495,-2.2527,-2.2557,-2.2585,-2.2608,-2.2605,-2.2637,-2.2683,-2.271,-2.2763,-2.2806,-2.2843,-2.2857,-2.2838,-2.2838,-2.2851,-2.2853,-2.2849,-2.285,-2.2683,-2.2833,-2.2832,-2.2831,-2.2831,-2.283,-2.2516,-2.2554,-2.2579,-2.2622,-2.2642,-2.2668,-2.2705,-2.2714,-2.2752,-2.2794,-2.2789,-2.284,-2.2864,-2.2913,-2.2929,-2.2968,-2.2948,-2.2968,-2.2973,-2.2977,-2.2982,-2.2845,-2.2976,-2.2975,-2.2975,-2.2975,-2.2974,0,-2.2647,-2.2661,-2.2701,-2.274,-2.2773,-2.2754,-2.2783,-2.2812,-2.2857,-2.2881,-2.2915,-2.2967,-2.3009,-2.3021,-2.306,-2.3089,-2.3081,-2.3099,-2.3096,-2.3099,-2.2998,-2.2982,-2.3105,-2.3105,-2.3105,-2.3105,-2.3105,-2.3105,-2.2719,-2.2783,-2.2784,-2.2857,-2.2871,-2.292,-2.2939,-2.2962,-2.2981,-2.304,-2.3074,-2.3082,-2.3101,-2.3141,-2.3178,-2.318,-2.3194,-2.3216,-2.3214,-2.312,-2.3107,-2.3094,-2.3078,-2.3219,-2.322,-2.3312,-2.3312,-2.3313]},{"header":{"parameterUnit":"m.s-1","parameterCategory":1,"la1":30.2991,"la2":30.254,"lo1":-89.0895,"lo2":-89.0444,"dy":0.0017,"dx":0.0017,"nx":28,"ny":28,"refTime":"2024-04-21T21:00:00:Z","depth":0,"parameterNumber":3,"parameterNumberName":"V-component_of_WINDS"},"data":[0,0,0,0,0,0,0,0,0,0,0,0,0,0,0,0,0,0,0,0,0,0,0,0,0,0,0,0,0,0,0,0,0,0,0,0,0,0,0,0,0,0,0,0,0,0,0,0,0,0,0,0,0,0,0,0,0,0,-2.67,-2.67,0,-2.677,-2.677,-2.6771,-2.6759,-2.6758,-2.6757,-2.6756,-2.6826,-2.6829,-2.6832,0,0,0,0,0,0,0,0,0,0,0,0,0,-2.6553,-2.6556,-2.67,-2.67,-2.6701,-2.6769,-2.677,-2.6771,-2.676,-2.6758,-2.6757,-2.6755,-2.6825,-2.6828,-2.6832,0,0,0,0,0,0,0,0,0,0,0,0,0,-2.6619,-2.6557,-2.6699,-2.6704,-2.6705,-2.6769,-2.677,-2.6772,-2.676,-2.6758,-2.6756,-2.6755,-2.6824,-2.6828,-2.6833,-2.6897,0,0,-2.6846,-2.6848,0,0,0,0,0,0,0,0,-2.6616,-2.6625,-2.6702,-2.6704,-2.6705,-2.6754,-2.6745,-2.6814,-2.676,-2.6739,-2.6756,-2.6754,-2.6803,-2.6809,-2.6826,-2.69,-2.6903,-2.6847,-2.6849,-2.6851,-2.6853,0,0,0,0,0,0,0,-2.6611,-2.6622,-2.6727,-2.6703,-2.6705,-2.6701,-2.6709,-2.6758,-2.678,-2.6741,-2.674,-2.6749,-2.6804,-2.6822,-2.6828,-2.6904,-2.6847,-2.6851,-2.6853,-2.6855,-2.7032,-2.7034,0,0,0,0,0,0,-2.6606,-2.6618,-2.6725,-2.6729,-2.6655,-2.6705,-2.6714,-2.674,-2.678,-2.6784,-2.675,-2.6748,-2.6815,-2.6823,-2.683,-2.6907,-2.6851,-2.6856,-2.6858,-2.703,-2.7032,-2.7035,0,0,0,0,0,0,-2.6602,-2.6615,-2.6722,-2.6674,-2.6687,-2.671,-2.674,-2.6742,-2.6761,-2.6787,-2.6791,-2.6765,-2.6814,-2.6824,-2.688,-2.6909,-2.6858,-2.6862,-2.7028,-2.7031,-2.7034,-2.7061,0,0,0,0,0,0,-2.6598,-2.6614,-2.6639,-2.6674,-2.669,-2.6771,-2.6741,-2.6745,-2.6769,-2.6766,-2.6802,-2.6806,-2.6814,-2.6873,-2.6885,-2.6914,-2.6865,-2.7025,-2.7029,-2.7033,-2.7058,-2.7065,-2.7071,0,0,0,0,0,-2.6593,-2.6644,-2.6641,-2.6654,-2.6722,-2.6773,-2.6782,-2.679,-2.6771,-2.6796,-2.6813,-2.6805,-2.6905,-2.6879,-2.6892,-2.6923,-2.7023,-2.7028,-2.7032,-2.7055,-2.7063,-2.7071,0,0,0,0,0,0,-2.6612,-2.6649,-2.6645,-2.671,-2.6738,-2.6771,-2.6803,-2.6799,-2.6833,-2.683,-2.6838,-2.6846,-2.6902,-2.6919,-2.689,-2.6987,-2.6961,-2.6968,-2.6974,-2.6982,-2.6989,-2.6983,-2.6869,0,0,0,0,0,-2.6624,-2.6663,-2.6693,-2.6747,-2.6761,-2.678,-2.6803,-2.6806,-2.6836,-2.6848,-2.6869,-2.6898,-2.6935,-2.696,-2.6996,-2.706,-2.7067,-2.7088,-2.7095,-2.71,-2.7106,-2.7139,-2.7148,-2.7049,-2.7049,-2.7049,0,0,-2.6648,-2.6673,-2.6698,-2.6751,-2.6774,-2.6813,-2.679,-2.6833,-2.6862,-2.6855,-2.6908,-2.6925,-2.6957,-2.7017,-2.7045,-2.7032,-2.7135,-2.7106,-2.711,-2.7112,-2.7145,-2.7154,-2.7162,-2.7052,-2.7052,-2.7051,0,0,-2.6713,-2.6736,-2.6783,-2.6806,-2.6841,-2.6853,-2.6864,-2.6897,-2.6908,-2.6962,-2.6956,-2.6991,-2.7056,-2.7079,-2.7099,-2.7172,-2.7165,-2.7183,-2.7217,-2.7249,-2.7257,-2.7264,-2.7289,-2.7297,-2.7189,-2.7189,-2.7189,0,-2.6738,-2.6799,-2.6807,-2.6851,-2.6874,-2.6869,-2.6915,-2.6937,-2.6982,-2.6998,-2.6984,-2.7064,-2.7086,-2.7151,-2.7168,-2.7185,-2.7197,-2.7179,-2.7256,-2.7263,-2.7269,-2.7292,-2.7302,-2.7191,-2.7191,-2.7191,-2.719,0,-2.6828,-2.687,-2.6903,-2.6946,-2.6973,-2.7018,-2.7032,-2.7059,-2.706,-2.7073,-2.7127,-2.7153,-2.7194,-2.721,-2.7212,-2.7274,-2.7266,-2.7254,-2.7228,-2.728,-2.7302,-2.7311,-2.7194,-2.7193,-2.7193,-2.7192,0,0,-2.6906,-2.6953,-2.6965,-2.6984,-2.7022,-2.7054,-2.7098,-2.7138,-2.7159,-2.719,-2.7227,-2.7282,-2.727,-2.7293,-2.7298,-2.7327,-2.738,-2.7311,-2.7312,-2.7322,-2.7449,-2.7457,-2.7468,-2.7377,-2.7379,-2.738,-2.7446,0,-2.6973,-2.7051,-2.706,-2.7129,-2.7167,-2.7163,-2.7201,-2.7228,-2.7241,-2.7274,-2.7289,-2.7327,-2.731,-2.7323,-2.7352,-2.7368,-2.7406,-2.7363,-2.7409,-2.7411,-2.74,-2.7479,-2.7488,-2.7549,-2.7455,-2.7457,-2.7458,0,-2.7061,-2.7095,-2.7168,-2.7199,-2.7215,-2.725,-2.7287,-2.7319,-2.7349,-2.7356,-2.7382,-2.7382,-2.7426,-2.74,-2.746,-2.7431,-2.745,-2.7461,-2.7464,-2.7467,-2.7437,-2.7484,-2.7569,-2.7578,-2.7472,-2.747,-2.7469,0,-2.7109,-2.7172,-2.7224,-2.7241,-2.7279,-2.7303,-2.732,-2.7348,-2.7371,-2.7403,-2.7418,-2.7455,-2.7475,-2.7503,-2.7513,-2.7493,-2.7572,-2.7547,-2.7579,-2.7578,-2.7595,-2.7593,-2.7683,-2.7609,-2.7609,-2.7609,-2.7609,0,-2.7182,-2.7227,-2.7246,-2.7277,-2.7327,-2.7336,-2.7385,-2.74,-2.7425,-2.7459,-2.7458,-2.749,-2.7501,-2.7535,-2.7543,-2.7591,-2.76,-2.7607,-2.7608,-2.7606,-2.7605,-2.7618,-2.7613,-2.7612,-2.7611,-2.7611,-2.761,0,-2.7243,-2.7258,-2.7314,-2.7345,-2.7354,-2.7389,-2.7416,-2.7446,-2.7459,-2.7501,-2.7512,-2.7532,-2.7571,-2.7584,-2.7631,-2.7636,-2.7692,-2.769,-2.7682,-2.7682,-2.7712,-2.7709,-2.7813,-2.7826,-2.7745,-2.7746,-2.7746,0,-2.7288,-2.7323,-2.7358,-2.738,-2.7398,-2.7435,-2.7459,-2.7469,-2.7493,-2.7529,-2.7555,-2.7594,-2.7625,-2.7688,-2.7706,-2.7742,-2.774,-2.7774,-2.7745,-2.7742,-2.7739,-2.7736,-2.7739,-2.7779,-2.778,-2.778,-2.7781,0,-2.7366,-2.7372,-2.7406,-2.7443,-2.7471,-2.75,-2.7528,-2.7547,-2.7561,-2.7588,-2.7628,-2.7653,-2.7701,-2.7739,-2.7776,-2.7792,-2.7789,-2.779,-2.7799,-2.7797,-2.779,-2.7792,-2.7695,-2.7787,-2.7787,-2.7786,-2.7786,-2.7786,-2.742,-2.7449,-2.7478,-2.7516,-2.7539,-2.7565,-2.7594,-2.7611,-2.7644,-2.7684,-2.7688,-2.7731,-2.7759,-2.7808,-2.7826,-2.7859,-2.785,-2.7863,-2.7866,-2.7869,-2.7871,-2.7786,-2.7866,-2.7866,-2.7866,-2.7866,-2.7866,0,-2.7496,-2.7515,-2.7549,-2.7589,-2.7618,-2.7613,-2.7644,-2.7669,-2.7706,-2.7733,-2.7764,-2.7809,-2.7846,-2.7867,-2.7904,-2.7926,-2.7925,-2.7935,-2.7933,-2.7936,-2.7878,-2.7866,-2.7935,-2.7935,-2.7935,-2.7935,-2.7935,-2.7935,-2.7539,-2.7589,-2.7597,-2.7657,-2.7675,-2.7718,-2.7735,-2.7759,-2.778,-2.7831,-2.7862,-2.7875,-2.7899,-2.7938,-2.7971,-2.7976,-2.7989,-2.8,-2.8003,-2.7948,-2.7941,-2.7934,-2.7922,-2.8003,-2.8003,-2.8059,-2.806,-2.806]}]]